Powrót do katalogu

USA 451

AktywnyMilitariaVLEO
NORAD 62350·PAYLOAD·🇺🇸 United States

Wystrzelony Dec 17, 2024 z Vandenberg Space Force Base

Loading…

Następne Przeloty (najbliższe 24 godziny)

TLE

NieaktualneSource: Mike McCants

Epoka: Aug 12, 2026, 21:26 UTC

1 62350U 24243L   26224.89364097 0.00000000  00000-0  00000-0 0    06
2 62350  70.0240 139.4536 0003000 181.0875 178.9125 14.96713608    03

Śledź USA 451 w czasie rzeczywistym z AllMySat

Download on the App Store